www.pogodaiklimat.ru

Погода и климат >> Архив погоды >> Колумбия >> Нейва


ПОГОДА в Нейве

  • Прогноз погоды в Нейве
  • Монитор погоды в Нейве

АРХИВ ПОГОДЫ в Нейве

Время (UTC), дата Ветер
(напр.,м/с)
 
Видим.   Явления Облачность Т
(С)
Тd
(С)
f
(%)
Тe
(С)
Тes
(С)
Комфортность P
(гПа)
Po
(гПа)
Тmin
(С)
Tmax
(С)
R
(мм)
R24
(мм)
S
(см)
12 14.04 Ю 2 16 км мгла 5/0
[Ac trans Cs]
+22.9 +20.2 85 +30 +31 очень
душно
1009.2 958.8 +22.4
15 14.04 Ю 3 14 км мгла 4/1 1200 м
[Cu hum Cs]
+29.2 +20.0 58 +36 +47 очень
душно
1008.5 959.1
18 14.04 ЮЗ 2 12 км мгла 5/3 1350 м
[Cu med, cong Cs]
+33.6 +17.3 38 +37 +51 опасность
солнечного
удара
1005.2 956.7
21 14.04 З 2 10 км мгла 4/1 1350 м
[Cu hum Ac trans]
+35.4 +18.0 36 +39 +43 очень
душно
1000.3 952.3
00 15.04 С 1 14 км мгла 9/1 1500 м
[Cu med, cong Ac trans]
+32.3 +20.4 50 +39 +39 очень
душно
1002.5 954.0 +35.3
03 15.04 ЮЗ 1 10 км осадки на расстоянии 10/3 1200 м
[Cu med, cong Ac As]
+28.8 +22.6 69 +38 +38 очень
душно
1006.5 957.2
12 15.04 С 2 10 км слаб. морось 10/3 210 м
[St As trans]
+22.1 +21.4 96 +29 +29 очень
душно
1014.0 963.2 +21.8 37
15 15.04 ЮВ 1 9000 м осадки на расстоянии {морось} 10/4 300 м
[St As trans]
+23.8 +20.8 83 +30 +34 очень
душно
1015.2 964.6
18 15.04 Ю 3 16 км {морось} 8/3 600 м
[Cu hum Ac trans]
+28.4 +20.9 64 +36 +42 очень
душно
1009.6 960.1 1
21 15.04 ЮВ 4 18 км 8/1 800 м
[Cu med, cong Ac trans Cs]
+29.0 +20.8 61 +36 +38 очень
душно
1005.5 956.3
00 16.04 СВ 1 16 км в посл. час морось 9/1 900 м
[Cu med, cong Ac As]
+27.8 +22.5 73 +37 +37 очень
душно
1006.3 956.8 +32.1 0.1
12 16.04 З 1 18 км 5/1 660 м
[Cu hum Ac trans]
+23.2 +21.6 91 +31 +33 очень
душно
1010.9 960.5 +22.0 1
15 16.04 ЮЗ 2 18 км 9/1 300 м
[Cu hum Ac As]
+27.0 +21.4 71 +34 +40 очень
душно
1011.5 961.7
18 16.04 Ю 3 18 км 8/1 700 м
[Cu hum Ac As]
+31.6 +19.7 49 +37 +44 очень
душно
1008.0 959.1
21 16.04 Ю 4 18 км {морось} 9/1 1200 м
[Cu hum Ac trans Cs]
+28.2 +21.7 68 +36 +38 очень
душно
1005.2 955.8
00 17.04 Ю 3 18 км {морось} 6/1 1200 м
[Cu med, cong Ac trans Cs]
+27.6 +20.6 66 +34 +34 очень
душно
1005.4 955.9 +31.6 0.3
03 17.04 ЮВ 1 18 км 1/0
[Ac trans Cs]
+25.7 +20.5 73 +32 +32 очень
душно
1008.8 958.8
12 17.04 ЮВ 1 18 км 9/0
[Ac trans Cs]
+23.1 +20.6 86 +30 +32 очень
душно
1009.3 958.9 +21.9 0.3
15 17.04 ЮЗ 2 18 км 8/1 1200 м
[Cu hum Ac trans Cs]
+29.1 +20.2 59 +36 +45 очень
душно
1009.5 960.1
18 17.04 Ю 5 18 км 8/1 1200 м
[Cu med, cong Ac trans Cs]
+33.5 +18.9 42 +38 +44 очень
душно
1004.6 956.1
21 17.04 Ю 5 16 км осадки на расстоянии 8/1 1200 м
[Cu med, cong Ac trans Cs]
+34.4 +18.9 40 +39 +41 очень
душно
1001.0 952.8
00 18.04 ЮЗ 3 18 км 8/1 1500 м
[Cu hum Ac trans Cs]
+30.3 +19.2 51 +36 +36 очень
душно
1003.3 954.3 +35.3
03 18.04 СЗ 2 18 км 5/1 1200 м
[Cu hum Ac trans Cs]
+27.9 +20.3 63 +34 +34 очень
душно
1006.7 957.2
12 18.04 штиль 0 18 км 9/1 1500 м
[Cu hum Ac trans Cs]
+24.1 +22.5 91 +32 +33 очень
душно
1008.3 958.1 +22.7 0.9
15 18.04 ЮЗ 2 18 км 6/1 900 м
[Cu hum Ac trans Cs]
+29.5 +20.5 58 +36 +47 очень
душно
1008.6 959.3
18 18.04 В 3 18 км 9/1 1200 м
[Cu med, cong Ac As Cs]
+32.4 +20.4 49 +39 +48 очень
душно
1005.2 956.5
21 18.04 СВ 3 16 км осадки на расстоянии 9/1 1200 м
[Cu med, cong Ac As Cs]
+31.9 +20.6 51 +39 +41 очень
душно
1002.3 953.7
00 19.04 С 1 18 км 8/1 1200 м
[Cu med, cong Ac trans Cs]
+29.0 +22.2 67 +38 +38 очень
душно
1004.5 955.3 +33.7
12 19.04 С 2 10 км 10/3 150 м
[St Ac As Cs]
+23.7 +21.8 89 +30 +31 очень
душно
1010.1 959.8 +23.4 2
15 19.04 СЗ 2 18 км 9/4 420 м
[Cu hum Ac trans Cs]
+27.8 +22.3 72 +36 +42 очень
душно
1011.0 961.4
18 19.04 ЮВ 2 16 км осадки на расстоянии 8/4 1050 м
[Cu med, cong Ac As Cs]
+31.5 +22.5 59 +41 +49 опасность
перегрева
1007.4 958.4
21 19.04 Ю 5 16 км осадки на расстоянии 9/1 1200 м
[Cu med, cong Ac As Cs]
+31.1 +21.9 58 +40 +41 очень
душно
1004.0 955.2
00 20.04 ЮЗ 2 18 км 8/1 1200 м
[Cu hum Ac As Cs]
+28.0 +22.1 70 +36 +36 очень
душно
1005.6 956.2 +32.0
12 20.04 СВ 4 12 км осадки на расстоянии 10/4 400 м
[St Ac As]
+24.1 +21.8 87 +31 +31 очень
душно
1011.5 961.2 +23.2
15 20.04 С 3 10 км осадки на расстоянии 10/3 600 м
[St Ac As]
+24.6 +21.5 83 +31 +34 очень
душно
1014.0 963.6
18 20.04 СВ 2 18 км {морось} 8/3 800 м
[Cu med, cong Ac trans Cs]
+28.8 +21.8 66 +37 +46 очень
душно
1009.9 960.4 0.2
21 20.04 СЗ 2 16 км осадки на расстоянии 5/4 1050 м
[Cu med, cong Ac trans Ci ing]
+32.2 +21.2 52 +40 +43 очень
душно
1004.6 955.9
00 21.04 СВ 2 18 км 5/1 1200 м
[Cu med, cong Ac trans Cs]
+26.8 +21.5 73 +34 +34 очень
душно
1006.1 956.5 +33.0

 

Местоположение метеостанции Нейва (Колумбия): широта 2.97 долгота -75.30 высота над уровнем моря 443 м.

В архиве по умолчанию представлена погода в Нейве за последнюю неделю. Архивные данные за месяц целиком и за предыдущие месяцы, начиная с января 2011 года, Вы можете получить, выбрав интересующий диапазон дат из раскрывающегося списка и нажав кнопку "Ввод!".


*Определитесь, кто Вы:
робот инопланетянин человек

Внимание! Время в таблицах - всемирное. Для получения местного времени необходимо прибавить поправку, которая равна -5 ч.

Смотрите также архив погоды в соседних городах и на ближайших метеорологических станциях:

Погода в Кали (Колумбия) (136 км)
Погода в Ибаге (Колумбия) (163 км)
Погода в Армении (Колумбия) (176 км)
Погода в Перейре (Колумбия) (211 км)
Погода в Вильявисенсьо (Колумбия) (230 км)
Погода в Боготе (Колумбия) (232 км)
Погода в Пасто (Колумбия) (278 км)
Погода в Кибдо (Колумбия) (339 км)
Погода в Рионегро (Колумбия) (352 км)
Погода в Ипьялесе (Колумбия) (353 км)

Пояснения к столбцам:

Ветер - указаны скорость ветра в м/с - средняя за 10 мин, порывы в срок и между сроками (в фигурных скобках) и направление, откуда дует ветер: С - северный, СВ - северо-восточный, В - восточный, ЮВ - юго-восточный, Ю - южный, ЮЗ - юго-западный, З - западный, СЗ - северо-западный.
Видимость - горизонтальная дальность видимости в метрах или километрах. При видимости от 1 до 10 км при отсутствии осадков обычно наблюдается дымка, при ухудшении видимости до 1 км и менее - туман. В сухую погоду видимость может ухудшаться дымом, пылью или мглою.
Явления - указаны атмосферные явления, наблюдавшиеся в срок или в последний час перед сроком; фигурными скобками обозначены явления, наблюдавшиеся между сроками (за 1-3 часа до срока); квадратными скобками обозначены град или гололедные отложения с указанием их диаметра в мм.
Облачность - указаны через наклонную черту общая и нижняя облачность в баллах и высота нижней границы облаков в метрах; квадратными скобками обозначены формы облаков: Ci - перистые, Cs - перисто-слоистые, Cc - перисто-кучевые, Ac - высококучевые, As - высокослоистые, Sc - слоисто-кучевые, Ns - слоисто-дождевые, Cu - кучевые, Cb - кучево-дождевые. Подробнее классификацию облаков см. в Атласе облаков (PDF).
T - Температура воздуха - температура, измеренная на высоте 2 м над землей.
Td - Температура точки росы - температура, при понижении до которой содержащийся в воздухе водяной пар достигнет насыщения.
f - Относительная влажность воздуха - влажноcть воздуха, измеренная на высоте 2 м над землей.
Te - Эффективная температура - температура, которую ощущает одетый по сезону человек в тени. Характеристика душности погоды. При расчете учитывается влияние влажности воздуха и скорости ветра на теплоощущения человека.
Tes - Эффективная температура на солнце - температура, которую ощущает человек, с поправкой на солнечный нагрев. Характеристика знойности погоды. Зависит от высоты солнца над горизонтом, облачности и скорости ветра. Ночью, в пасмурную погоду, а также при ветре 12 м/с и более поправка равна нулю.
P - Атмосферное давление - приведенное к уровню моря атмосферное давление.
Po - Атмосферное давление - измеренное на уровне метеостанции атмосферное давление.
Tmin - Минимальная температура - минимум температуры воздуха на высоте 2 м над землей.
Tmax - Максимальная температура - максимум температуры воздуха на высоте 2 м над землей.
R - Количество осадков - Количество выпавших осадков за период времени, мм. При наведении курсора мыши на число - период времени, за который выпало указанное количество осадков.
R24 - Количество осадков - Количество выпавших осадков за 24 часа, мм.
S - Снежный покров - Высота снежного покрова, см. При наведении курсора мыши на число - состояние снежного покрова и степень покрытия местности в баллах.